THOR ABLESTAR DEB, 3740

Orbit data source: Space-Track

THOR ABLESTAR DEB, 3740 is space debris in LEO originally from a launch on Thu, 29 Jun 1961 UTC launched from the Air Force Eastern Test Range (AFETR). Debris objects in space refer to the collection of defunct objects orbiting the Earth. Examples of debris include non-operational satellites, rocket bodies, and fragments generated from explosions, collisions, or faulty payload assembly.

Loading next visibility...
Identifier
3740, 1961-015JB
Orbit
LEO
Country
Flag of USUS
Related business
Manufacturer
Unknown
Mission
Spacecraft
Bus & Motor
Unknown
Mass
Unknown
Launch date (UTC)
1961-06-29 (65 years ago)
Launch vehicle
Unknown
Launch site
Air Force Eastern Test Range (AFETR)
Object type
Payload
Rocket body
Debris
Shape & HBR
Unknown shape, 0.1 m
Radar Cross Section
Small (<0.1 m²)

Expand to show TLE details & history
Last TLE update: 2 days ago

TLE from 2 days ago
0 THOR ABLESTAR DEB
1 03740U 61015JB  26234.40488311  .00000575  00000-0  34431-3 0  9998
2 03740  66.3326 237.9063 0087645 338.7358  21.0093 14.12425598331383
Epoch: 2026-08-22T09:43Z
TLE epoch observation values (Epoch: 2026-08-22T09:43:01.900Z)
Latitude
-0.00006°
Longitude
121.43259°
Altitude
794.062 km
Speed
7.487 km/s
True Right ascension
15h 51m 37s
True Declination
0° 00' 00"
Sunlit
Object was in daylight at epoch
Visualization orbit readout
Latitude
Unknown
Longitude
Unknown
Altitude
Unknown
Speed
Unknown
Apparent Right ascension
Unknown
Apparent Declination
Unknown
Sunlit
N/A
Visualization observer readout
Local Sidereal Time
02:28:44
Azimuth
Unknown
Elevation
Unknown
Doppler factor
Unknown
Orbital elements
Apogee altitude
912.861 km
Perigee altitude
786.167 km
Semi-major axis
7,227.651 km
Eccentricity
0.00876
Inclination
66.3326°
RAAN
237.9063°
Arg. of periapsis
338.7358°
True anomaly
21.37309°
Mean anomaly
21.0093°
Eccentric anomaly
21.19082°
Mean motion
3.53222 °/min
Orbital period
101.92 mins
BSTAR
0.00034431
Loading maneuver chart data...
Computing Atmospheric mass density...
Loading historical data...
Loading historical data...
Loading historical data...
Loading historical data...
Loading historical data...
Loading historical data...
Loading historical data...

Documentation

Showing up to 5 results
|